{"data":{"norad_id":57652,"intl_designator":"2023-122W","name":"STARLINK-30276","alt_names":[],"object_type":"PAYLOAD","status":"ACTIVE","operator":null,"country":"US","launch_date":"2023-08-17","launch_site_code":"AFETR","launch_vehicle":null,"mission":null,"orbit_class":"UNKNOWN","rcs_meters":null,"size_class":null,"mass_kg":null,"dimensions":null,"purposes":["comms"],"wikipedia_slug":null,"has_3d_model":false,"image_url":null,"decayed_at":null,"tle_current":{"epoch":"2026-05-25T01:03:03.200256Z","epoch_age_seconds":64561,"freshness":"FRESH","line1":"1 57652U 23122W   26145.04378704  .00002544  00000+0  10197-3 0  9991","line2":"2 57652  43.0060  21.3505 0001618 261.4958  98.5711 15.27575241153882","mean_motion":15.27575241,"eccentricity":0.0001618,"inclination_deg":43.006,"raan_deg":21.3505,"arg_perigee_deg":261.4958,"mean_anomaly_deg":98.5711,"bstar":0.00010197,"rev_number":15388,"period_min":94.267042391793,"perigee_km":481.95320401867,"apogee_km":484.17348845071,"semimajor_km":6861.2003462347,"source":"CELESTRAK","updated_at":"2026-05-25T13:38:18.366173Z"}}}